Datum,Zeit,Temp. I.,Temp.,Temp. Sonne,Windchill X,Diff Temp.,Feuchte I.,Feuchte,Luftdruck,Regen,Wind,Richtung,Windb�en,W0
,,�C,�C,�C,�C,�C,%,%,hPa,mm,km/h,�,km/h,B0
#Calibrate=1.000 #Regen0=0mm #Location=365/365m #Baro_correction=43hPa #Station=Nexus
,,1,2,7,8,10,17,18,133,34,35,36,45,97
01.09.2019,00:00,26.5,21.9,21.6,21.0,0.0,58,70,1003.9,0.000,1.1,315,2.7,9
01.09.2019,00:01,26.5,21.9,21.6,21.0,0.0,58,70,1003.9,0.000,1.1,315,2.7,9
01.09.2019,00:10,26.5,21.9,21.7,21.3,0.0,58,70,1003.9,0.000,2.7,315,3.4,9
01.09.2019,00:20,26.5,21.7,21.5,21.2,0.0,58,71,1003.9,0.000,1.8,292,5.0,9
01.09.2019,00:30,26.5,21.3,21.0,20.3,0.0,58,72,1003.8,0.000,0.3,112,0.0,9
01.09.2019,00:40,26.5,21.0,20.5,19.4,0.0,58,73,1003.8,0.000,0.5,180,0.0,9
01.09.2019,00:50,26.4,20.7,20.1,18.9,0.0,58,74,1003.9,0.000,0.3,112,0.0,9
01.09.2019,01:00,26.4,20.4,19.8,18.5,0.0,58,75,1003.9,0.000,0.3,315,1.6,9
01.09.2019,01:10,26.4,20.1,19.4,18.1,0.0,58,75,1003.8,0.000,0.2,90,0.0,9
01.09.2019,01:20,26.4,19.8,19.0,17.5,0.0,58,76,1003.8,0.000,0.0,315,0.0,9
01.09.2019,01:30,26.4,19.6,18.8,17.2,0.0,58,76,1003.9,0.000,0.0,225,0.0,9
01.09.2019,01:40,26.4,19.4,18.6,17.1,0.0,58,77,1003.9,0.000,0.5,180,0.0,9
01.09.2019,01:50,26.2,19.2,18.5,17.1,0.0,58,78,1003.6,0.000,0.3,180,0.0,9
01.09.2019,02:00,26.2,18.9,18.2,16.8,0.0,58,78,1003.6,0.000,0.0,157,0.0,9
01.09.2019,02:10,26.3,18.8,18.0,16.5,0.0,58,78,1003.6,0.000,0.0,112,0.0,9
01.09.2019,02:20,26.2,18.7,17.9,16.3,0.0,58,78,1003.6,0.000,0.2,157,0.0,9
01.09.2019,02:30,26.2,18.4,17.6,16.1,0.0,58,79,1003.8,0.000,0.3,292,0.0,9
01.09.2019,02:40,26.2,18.3,17.6,16.3,0.0,58,79,1003.8,0.000,0.5,270,1.8,9
01.09.2019,02:50,26.2,18.3,17.6,16.3,0.0,58,79,1003.8,0.000,0.3,135,0.0,9
01.09.2019,03:00,26.1,18.2,17.5,16.1,0.0,58,79,1003.8,0.000,0.0,157,0.0,9
01.09.2019,03:10,26.1,18.1,17.4,16.0,0.0,58,80,1003.8,0.000,0.0,135,0.0,9
01.09.2019,03:20,26.1,18.0,17.4,16.1,0.0,57,80,1003.8,0.000,0.8,270,0.0,9
01.09.2019,03:30,26.1,18.1,17.6,16.5,0.0,57,80,1004.1,0.000,0.6,225,0.0,9
01.09.2019,03:40,26.1,18.2,17.8,16.9,0.0,58,81,1004.1,0.000,0.3,202,2.1,9
01.09.2019,03:50,26.0,18.2,17.9,17.2,0.0,57,81,1004.1,0.000,0.3,67,0.0,9
01.09.2019,04:00,26.0,18.1,17.7,17.0,0.0,58,81,1004.1,0.000,0.0,135,0.0,9
01.09.2019,04:10,26.0,18.1,17.6,16.6,0.0,57,81,1003.9,0.000,0.0,360,0.0,9
01.09.2019,04:20,26.0,18.0,17.4,16.3,0.0,57,81,1003.9,0.000,0.0,67,0.0,9
01.09.2019,04:30,26.0,17.9,17.3,16.1,0.0,58,81,1003.7,0.000,0.0,135,0.0,9
01.09.2019,04:40,26.0,17.8,17.2,15.9,0.0,57,81,1003.7,0.000,0.0,135,0.0,9
01.09.2019,04:50,26.0,17.6,17.0,15.7,0.0,57,81,1003.4,0.000,0.0,112,0.0,9
01.09.2019,05:00,26.0,17.5,16.9,15.7,0.0,57,81,1003.4,0.000,0.0,157,0.0,9
01.09.2019,05:10,25.9,17.5,16.8,15.5,0.0,57,81,1003.4,0.000,0.0,135,0.0,9
01.09.2019,05:20,25.9,17.3,16.6,15.3,0.0,57,81,1003.4,0.000,0.0,270,0.0,9
01.09.2019,05:30,25.9,17.2,16.5,15.2,0.0,57,81,1003.3,0.000,0.0,315,0.0,9
01.09.2019,05:40,25.8,17.1,16.5,15.3,0.0,57,82,1003.3,0.000,0.0,112,0.0,9
01.09.2019,05:50,25.8,17.0,16.4,15.2,0.0,57,81,1003.4,0.000,0.0,135,0.0,9
01.09.2019,06:00,25.8,17.0,16.3,14.9,0.0,57,82,1003.4,0.000,0.0,112,0.0,9
01.09.2019,06:10,25.8,16.9,16.2,14.9,0.0,57,81,1003.5,0.000,0.0,180,0.0,9
01.09.2019,06:20,25.8,16.8,16.1,14.7,0.0,57,82,1003.5,0.000,0.0,270,0.0,9
01.09.2019,06:30,25.7,16.7,16.0,14.6,0.0,57,82,1003.8,0.000,0.0,315,0.0,9
01.09.2019,06:40,25.7,16.6,15.9,14.5,0.0,57,82,1003.8,0.000,0.0,135,0.0,9
01.09.2019,06:50,25.7,16.5,15.8,14.4,0.0,57,82,1003.9,0.000,0.0,112,0.0,9
01.09.2019,07:00,25.7,16.5,15.9,14.7,0.0,57,82,1003.9,0.000,0.0,112,0.0,9
01.09.2019,07:10,25.6,16.6,16.0,14.8,0.0,57,82,1004.2,0.000,0.2,157,0.0,9
01.09.2019,07:20,25.6,16.7,16.1,14.8,0.0,57,82,1004.2,0.000,0.0,135,0.0,9
01.09.2019,07:30,25.6,16.9,16.4,15.3,0.0,57,82,1004.2,0.000,0.0,270,0.0,9
01.09.2019,07:40,25.6,17.2,17.0,16.5,0.0,57,81,1004.2,0.000,0.0,135,0.0,9
01.09.2019,07:50,25.6,17.6,19.4,19.4,0.0,57,81,1004.5,0.000,0.0,135,0.0,9
01.09.2019,08:00,25.6,17.8,19.7,19.7,0.0,57,81,1004.5,0.000,0.0,135,0.0,9
01.09.2019,08:10,25.6,18.1,19.3,19.3,0.0,57,81,1004.6,0.000,0.0,67,0.0,9
01.09.2019,08:20,25.6,18.6,22.3,22.3,0.0,57,80,1004.6,0.000,0.0,22,0.0,9
01.09.2019,08:30,25.5,19.1,24.6,24.6,0.0,57,79,1004.7,0.000,0.5,315,2.4,9
01.09.2019,08:40,25.5,19.6,26.0,26.0,0.0,57,79,1004.7,0.000,0.5,315,0.0,9
01.09.2019,08:50,25.6,20.4,26.7,26.7,0.0,57,77,1005.2,0.000,0.8,315,0.0,3
01.09.2019,09:00,25.5,21.2,28.5,28.5,0.0,57,75,1005.2,0.000,1.4,360,2.4,3
01.09.2019,09:10,25.5,21.8,29.6,29.6,0.0,57,72,1005.8,0.000,1.9,315,5.1,3
01.09.2019,09:20,25.6,22.5,30.5,30.5,0.0,57,70,1005.8,0.000,1.9,292,7.1,3
01.09.2019,09:30,25.6,22.9,29.7,29.7,0.0,57,67,1005.7,0.000,3.2,247,2.6,3
01.09.2019,09:40,25.6,23.1,29.3,29.3,0.0,57,66,1005.7,0.000,2.4,315,9.0,3
01.09.2019,09:50,25.6,23.4,29.5,29.5,0.0,57,65,1005.9,0.000,2.9,315,9.7,3
01.09.2019,10:00,25.6,23.9,29.5,29.5,0.0,57,64,1005.9,0.000,3.7,337,4.5,3
01.09.2019,10:10,25.6,24.1,30.1,30.1,0.0,57,63,1006.1,0.000,2.6,292,9.8,3
01.09.2019,10:20,25.6,24.3,30.2,30.2,0.0,57,61,1006.1,0.000,4.0,315,6.1,3
01.09.2019,10:30,25.6,24.5,29.8,29.8,0.0,57,62,1006.2,0.000,3.5,337,0.0,3
01.09.2019,10:40,25.6,24.7,30.2,30.2,0.0,57,61,1006.2,0.000,2.1,360,4.8,3
01.09.2019,10:50,25.6,24.5,27.7,27.7,0.0,57,60,1006.2,0.000,4.7,315,4.2,3
01.09.2019,11:00,25.6,24.8,27.9,27.9,0.0,57,59,1006.2,0.000,3.2,270,11.9,3
01.09.2019,11:10,25.6,24.9,27.5,27.5,0.0,57,58,1006.3,0.000,4.5,157,5.6,3
01.09.2019,11:20,25.6,25.1,27.8,27.8,0.0,57,58,1006.3,0.000,5.3,247,12.1,3
01.09.2019,11:30,25.6,25.1,27.0,27.0,0.0,56,58,1006.6,0.000,5.0,135,7.9,3
01.09.2019,11:40,25.6,24.7,26.1,26.1,0.0,57,59,1006.6,0.000,4.5,292,14.6,3
01.09.2019,11:50,25.6,24.6,26.1,26.1,0.0,57,59,1006.3,0.000,4.5,315,7.4,3
01.09.2019,12:00,25.6,25.1,28.9,28.9,0.0,57,58,1006.3,0.000,4.0,315,11.9,3
01.09.2019,12:10,25.6,25.2,28.9,28.9,0.0,56,55,1006.8,0.000,5.6,315,9.0,3
01.09.2019,12:20,25.6,25.6,30.2,30.2,0.0,56,55,1006.8,0.000,4.7,225,2.3,3
01.09.2019,12:30,25.6,25.7,28.6,28.6,0.0,56,55,1006.8,0.000,4.8,315,3.5,3
01.09.2019,12:40,25.6,25.9,28.0,28.0,0.0,56,54,1006.8,0.000,4.2,315,5.5,3
01.09.2019,12:50,25.6,25.7,26.8,26.8,0.0,56,54,1006.9,0.000,4.0,315,4.8,3
01.09.2019,13:00,25.6,25.8,26.4,26.4,0.0,56,54,1006.9,0.000,2.4,270,2.7,3
01.09.2019,13:10,25.6,25.5,25.8,25.8,0.0,56,53,1007.1,0.000,3.2,337,3.9,3
01.09.2019,13:20,25.6,25.1,25.1,25.0,0.0,56,55,1007.1,0.000,2.7,315,2.1,3
01.09.2019,13:30,25.6,24.9,24.7,24.4,0.0,56,54,1006.9,0.000,2.4,337,2.9,3
01.09.2019,13:40,25.6,24.9,24.5,23.8,0.0,56,55,1006.9,0.000,2.6,67,3.1,3
01.09.2019,13:50,25.6,24.4,24.0,23.1,0.0,56,55,1006.9,0.000,1.9,112,3.2,3
01.09.2019,14:00,25.6,24.0,23.5,22.5,0.0,56,56,1006.9,0.000,2.4,315,2.4,3
01.09.2019,14:10,25.6,23.7,23.0,21.7,0.0,56,58,1006.9,0.000,1.3,202,2.1,3
01.09.2019,14:20,25.6,23.4,22.6,21.0,0.0,56,59,1006.9,0.000,1.3,157,2.3,3
01.09.2019,14:30,25.6,23.3,22.6,21.3,0.0,56,59,1006.9,0.000,1.0,135,0.0,3
01.09.2019,14:40,25.6,23.2,22.7,21.6,0.0,56,61,1006.9,0.000,0.3,112,0.0,3
01.09.2019,14:50,25.6,23.1,22.6,21.7,0.0,56,59,1006.7,0.000,0.5,225,0.0,3
01.09.2019,15:00,25.6,23.3,22.9,22.2,0.0,56,59,1006.7,0.000,1.0,337,1.8,3
01.09.2019,15:10,25.6,23.8,23.6,23.1,0.0,56,57,1006.8,0.000,0.8,315,2.7,3
01.09.2019,15:20,25.6,24.5,24.5,24.5,0.0,56,56,1006.8,0.000,0.5,315,0.0,3
01.09.2019,15:30,25.6,24.5,24.7,24.7,0.0,55,55,1007.0,0.000,1.0,270,1.8,3
01.09.2019,15:40,25.6,24.4,24.7,24.7,0.0,55,53,1007.0,0.000,1.0,315,2.3,3
01.09.2019,15:50,25.6,24.3,24.4,24.4,0.0,55,54,1006.9,0.000,1.4,270,0.0,3
01.09.2019,16:00,25.7,24.6,24.8,24.8,0.0,55,54,1006.9,0.000,0.8,315,3.2,3
01.09.2019,16:10,25.6,24.8,25.0,25.0,0.0,55,53,1006.7,0.000,1.1,315,0.0,3
01.09.2019,16:20,25.6,25.2,25.8,25.8,0.0,55,53,1006.7,0.000,1.6,247,4.3,3
01.09.2019,16:30,25.6,25.1,26.1,26.1,0.0,55,52,1006.4,0.000,2.3,337,3.4,3
01.09.2019,16:40,25.6,25.1,27.7,27.7,0.0,55,51,1006.4,0.000,3.2,315,0.0,3
01.09.2019,16:50,25.7,25.3,28.9,28.9,0.0,55,50,1006.4,0.000,3.1,112,5.0,3
01.09.2019,17:00,25.7,24.7,26.8,26.8,0.0,55,51,1006.4,0.000,3.1,315,3.2,3
01.09.2019,17:10,25.7,24.5,24.9,24.9,0.0,55,51,1006.1,0.000,2.6,337,1.9,3
01.09.2019,17:20,25.7,24.3,24.3,24.2,0.0,55,50,1006.1,0.000,3.4,292,7.7,3
01.09.2019,17:30,25.7,24.3,24.5,24.5,0.0,54,51,1006.1,0.000,1.9,247,3.7,3
01.09.2019,17:40,25.7,24.7,26.3,26.3,0.0,54,51,1006.1,0.000,3.2,337,3.5,3
01.09.2019,17:50,25.7,24.3,25.9,25.9,0.0,54,49,1006.9,0.000,3.7,315,5.1,3
01.09.2019,18:00,25.7,23.9,25.1,25.1,0.0,54,50,1006.9,0.000,3.5,247,3.9,3
01.09.2019,18:10,25.7,23.5,24.3,24.3,0.0,53,49,1006.2,0.000,2.7,337,1.6,3
01.09.2019,18:20,25.7,23.3,23.4,23.4,0.0,54,50,1006.2,0.000,1.0,180,0.0,3
01.09.2019,18:30,25.7,23.0,22.9,22.6,0.0,53,50,1006.2,0.000,0.8,180,2.4,3
01.09.2019,18:40,25.7,22.7,22.5,22.0,0.0,54,51,1006.2,0.000,0.3,247,0.0,3
01.09.2019,18:50,25.7,22.5,22.1,21.4,0.0,53,54,1006.4,0.000,0.0,135,0.0,3
01.09.2019,19:00,25.7,22.2,21.6,20.5,0.0,53,56,1006.4,0.000,0.2,135,0.0,3
01.09.2019,19:10,25.7,22.0,21.3,19.8,0.0,54,60,1006.4,0.000,0.0,112,0.0,3
01.09.2019,19:20,25.7,21.7,20.9,19.4,0.0,54,61,1006.4,0.000,0.0,135,0.0,3
01.09.2019,19:30,25.7,21.4,20.6,19.1,0.0,54,62,1006.5,0.000,0.0,112,0.0,3
01.09.2019,19:40,25.7,21.0,20.2,18.5,0.0,54,63,1006.5,0.000,0.0,135,0.0,3
01.09.2019,19:50,25.7,20.6,19.7,17.9,0.0,54,65,1006.8,0.000,0.0,157,0.0,3
01.09.2019,20:00,25.7,20.1,19.2,17.4,0.0,54,66,1006.8,0.000,0.0,135,0.0,3
01.09.2019,20:10,25.7,19.9,18.9,16.8,0.0,54,67,1007.6,0.000,0.0,157,0.0,3
01.09.2019,20:20,25.7,19.6,18.6,16.6,0.0,54,67,1007.6,0.000,0.0,135,0.0,3
01.09.2019,20:30,25.6,19.3,18.4,16.5,0.0,54,68,1007.6,0.000,0.0,112,0.0,3
01.09.2019,20:40,25.6,19.0,18.1,16.2,0.0,54,68,1007.6,0.000,0.0,135,0.0,3
01.09.2019,20:50,25.6,18.8,17.8,15.9,0.0,54,69,1007.6,0.000,0.0,180,0.0,3
01.09.2019,21:00,25.6,18.6,17.6,15.7,0.0,54,69,1007.6,0.000,0.0,135,0.0,3
01.09.2019,21:10,25.6,18.3,17.4,15.5,0.0,54,70,1008.1,0.000,0.0,67,0.0,3
01.09.2019,21:20,25.6,18.2,17.3,15.5,0.0,54,71,1008.1,0.000,0.0,112,0.0,3
01.09.2019,21:30,25.6,18.1,17.2,15.5,0.0,54,71,1008.6,0.000,0.0,247,0.0,2
01.09.2019,21:40,25.6,17.9,17.2,15.8,0.0,54,72,1008.6,0.000,0.0,270,0.0,2
01.09.2019,21:50,25.6,17.9,17.2,15.8,0.0,54,72,1008.9,0.000,0.0,135,0.0,2
01.09.2019,22:00,25.5,17.8,17.1,15.7,0.0,54,72,1008.9,0.000,0.0,135,0.0,2
01.09.2019,22:10,25.5,17.8,17.0,15.5,0.0,54,73,1009.0,0.000,0.0,135,0.0,2
01.09.2019,22:20,25.5,17.6,16.9,15.6,0.0,54,73,1009.0,0.000,0.0,315,0.0,2
01.09.2019,22:30,25.6,17.6,17.0,15.7,0.0,54,73,1009.0,0.000,0.0,135,0.0,2
01.09.2019,22:40,25.6,17.7,17.1,15.9,0.0,54,73,1009.0,0.000,0.0,157,0.0,2
01.09.2019,22:50,25.7,17.7,17.2,16.1,0.0,54,74,1009.1,0.000,0.0,157,0.0,2
01.09.2019,23:00,25.8,17.8,17.3,16.3,0.0,54,73,1009.1,0.000,0.0,157,0.0,2
01.09.2019,23:10,25.9,17.8,17.3,16.2,0.0,54,74,1009.4,0.000,0.0,135,0.0,2
01.09.2019,23:20,26.0,17.8,17.3,16.2,0.0,55,74,1009.4,0.000,0.0,67,0.0,2
01.09.2019,23:30,26.0,17.8,17.3,16.2,0.0,55,74,1009.7,0.000,0.0,135,0.0,2
01.09.2019,23:40,26.0,17.8,17.2,16.1,0.0,55,74,1009.7,0.000,0.0,157,0.0,2
01.09.2019,23:50,26.1,17.7,17.2,16.1,0.0,55,74,1009.8,0.000,0.0,337,0.0,2
02.09.2019,00:00,26.1,17.6,17.1,16.1,0.0,54,75,1009.8,0.000,0.0,292,0.0,2
02.09.2019,00:01,26.1,17.6,17.1,16.1,0.0,54,75,1009.8,0.000,0.0,292,0.0,2
02.09.2019,00:10,26.2,17.5,17.0,16.1,0.0,54,75,1009.9,0.000,0.0,22,0.0,2
02.09.2019,00:20,26.2,17.5,17.0,16.0,0.0,54,75,1009.9,0.000,0.0,157,0.0,2
02.09.2019,00:30,26.2,17.5,16.9,15.8,0.0,54,75,1009.9,0.000,0.0,135,0.0,2
02.09.2019,00:40,26.2,17.4,16.8,15.7,0.0,54,75,1009.9,0.000,0.0,135,0.0,2
02.09.2019,00:50,26.2,17.5,17.0,15.9,0.0,54,74,1010.2,0.000,0.0,135,0.0,2
02.09.2019,01:00,26.1,17.5,17.0,16.1,0.0,55,74,1010.2,0.000,0.0,360,0.0,2
02.09.2019,01:10,26.1,17.5,17.0,16.1,0.0,55,74,1010.2,0.000,0.0,67,0.0,2
02.09.2019,01:20,26.1,17.4,17.0,16.1,0.0,54,74,1010.2,0.000,0.0,180,0.0,2
02.09.2019,01:30,26.0,17.4,16.9,16.0,0.0,54,74,1010.2,0.000,0.0,112,0.0,2
02.09.2019,01:40,25.9,17.4,16.9,15.9,0.0,54,74,1010.2,0.000,0.0,135,0.0,2
02.09.2019,01:50,25.9,17.4,16.9,15.9,0.0,54,74,1010.2,0.000,0.0,135,0.0,2
02.09.2019,02:00,25.8,17.4,16.9,16.0,0.0,54,74,1010.2,0.000,0.0,157,0.0,2
02.09.2019,02:10,25.8,17.4,16.9,16.0,0.0,54,74,1010.2,0.000,0.0,157,0.0,2
02.09.2019,02:20,25.7,17.2,16.8,15.9,0.0,54,74,1010.2,0.000,0.0,135,0.0,2
02.09.2019,02:30,25.7,17.1,16.6,15.6,0.0,54,74,1010.5,0.000,0.0,135,0.0,2
02.09.2019,02:40,25.6,17.1,16.6,15.5,0.0,54,74,1010.5,0.000,0.0,135,0.0,2
02.09.2019,02:50,25.6,16.9,16.4,15.3,0.0,54,75,1010.6,0.000,0.0,135,0.0,2
02.09.2019,03:00,25.6,16.9,16.3,15.1,0.0,54,75,1010.6,0.000,0.0,90,0.0,2
02.09.2019,03:10,25.5,16.7,16.1,15.0,0.0,54,75,1010.8,0.000,0.0,112,0.0,2
02.09.2019,03:20,25.5,16.7,16.1,14.9,0.0,54,75,1010.8,0.000,0.0,135,0.0,2
02.09.2019,03:30,25.4,16.6,16.0,14.7,0.0,54,76,1010.8,0.000,0.0,135,0.0,2
02.09.2019,03:40,25.4,16.5,15.9,14.6,0.0,54,76,1010.8,0.000,0.0,247,0.0,2
02.09.2019,03:50,25.4,16.3,15.7,14.5,0.0,54,76,1010.8,0.000,0.0,135,0.0,2
02.09.2019,04:00,25.2,16.1,15.5,14.3,0.0,54,77,1010.8,0.000,0.0,135,0.0,2
02.09.2019,04:10,25.2,16.1,15.5,14.3,0.0,54,76,1010.6,0.000,0.0,135,0.0,2
02.09.2019,04:20,25.3,16.0,15.5,14.4,0.0,54,75,1010.6,0.000,0.0,112,0.0,2
02.09.2019,04:30,25.3,15.9,15.4,14.4,0.0,54,74,1010.6,0.000,0.0,67,0.0,2
02.09.2019,04:40,25.2,15.7,15.2,14.2,0.0,53,74,1010.6,0.000,0.0,247,0.0,2
02.09.2019,04:50,25.2,15.6,15.0,13.7,0.0,53,75,1010.7,0.000,0.0,135,0.0,2
02.09.2019,05:00,25.2,15.4,14.6,13.1,0.0,53,75,1010.7,0.000,0.0,135,0.0,2
02.09.2019,05:10,25.1,15.1,14.3,12.6,0.0,53,76,1010.6,0.000,0.0,135,0.0,2
02.09.2019,05:20,25.1,14.8,13.9,12.2,0.0,53,76,1010.6,0.000,0.0,135,0.0,2
02.09.2019,05:30,25.1,14.5,13.6,11.8,0.0,53,77,1010.7,0.000,0.0,135,0.0,2
02.09.2019,05:40,25.0,14.3,13.4,11.5,0.0,53,78,1010.7,0.000,0.0,90,0.0,2
02.09.2019,05:50,25.0,14.0,13.1,11.3,0.0,53,78,1010.7,0.000,0.0,135,0.0,2
02.09.2019,06:00,24.9,13.7,12.8,11.1,0.0,53,78,1010.7,0.000,0.0,135,0.0,2
02.09.2019,06:10,24.9,13.5,12.6,10.9,0.0,53,78,1010.9,0.000,0.0,112,0.0,2
02.09.2019,06:20,24.9,13.3,12.4,10.7,0.0,53,79,1010.9,0.000,0.0,135,0.0,2
02.09.2019,06:30,24.8,13.2,12.3,10.5,0.0,53,79,1010.9,0.000,0.0,135,0.0,2
02.09.2019,06:40,24.8,13.0,12.1,10.3,0.0,52,79,1010.9,0.000,0.0,157,0.0,2
02.09.2019,06:50,24.8,12.9,12.0,10.2,0.0,52,79,1011.1,0.000,0.0,135,0.0,2
02.09.2019,07:00,24.8,13.0,12.1,10.4,0.0,52,80,1011.1,0.000,0.0,90,0.0,2
02.09.2019,07:10,24.7,13.0,12.2,10.6,0.0,52,80,1011.2,0.000,0.0,112,0.0,2
02.09.2019,07:20,24.7,13.1,12.3,10.8,0.0,52,80,1011.2,0.000,0.0,157,0.0,2
02.09.2019,07:30,24.7,13.1,12.3,10.8,0.0,52,80,1011.6,0.000,0.0,135,0.0,2
02.09.2019,07:40,24.6,13.5,12.8,11.5,0.0,52,80,1011.6,0.000,0.0,135,0.0,2
02.09.2019,07:50,24.6,13.9,13.6,13.1,0.0,52,79,1011.8,0.000,0.0,135,0.0,1
02.09.2019,08:00,24.6,14.1,13.8,13.3,0.0,52,79,1011.8,0.000,0.0,112,0.0,1
02.09.2019,08:10,24.6,14.7,14.8,14.8,0.0,52,79,1012.0,0.000,0.0,90,0.0,1
02.09.2019,08:20,24.6,14.9,14.8,14.7,0.0,52,78,1012.0,0.000,0.0,315,0.0,1
02.09.2019,08:30,24.6,15.1,15.1,15.0,0.0,52,77,1012.2,0.000,0.0,22,1.8,1
02.09.2019,08:40,24.6,15.4,15.4,15.4,0.0,52,77,1012.2,0.000,0.2,247,0.0,1
02.09.2019,08:50,24.5,16.1,20.0,20.0,0.0,52,74,1012.2,0.000,0.2,292,0.0,1
02.09.2019,09:00,24.5,16.1,19.8,19.8,0.0,52,72,1012.2,0.000,0.6,247,2.4,1
02.09.2019,09:10,24.5,16.1,19.0,19.0,0.0,52,71,1012.6,0.000,1.4,67,3.1,1
02.09.2019,09:20,24.4,16.3,21.2,21.2,0.0,52,70,1012.6,0.000,1.9,67,5.8,1
02.09.2019,09:30,24.4,16.9,22.0,22.0,0.0,51,67,1012.5,0.000,2.4,315,7.2,1
02.09.2019,09:40,24.4,17.0,19.5,19.5,0.0,51,66,1012.5,0.000,2.7,22,2.6,1
02.09.2019,09:50,24.4,17.6,20.8,20.8,0.0,51,65,1012.9,0.000,1.3,247,2.6,1
02.09.2019,10:00,24.4,18.1,20.7,20.7,0.0,51,63,1012.9,0.000,1.3,112,2.4,1
02.09.2019,10:10,24.4,18.6,21.3,21.3,0.0,51,62,1013.4,0.000,1.4,22,0.0,1
02.09.2019,10:20,24.4,18.7,20.9,20.9,0.0,51,61,1013.4,0.000,1.4,45,1.9,1
02.09.2019,10:30,24.4,18.7,20.5,20.5,0.0,51,60,1013.4,0.000,1.1,67,0.0,1
02.09.2019,10:40,24.4,18.9,20.2,20.2,0.0,51,57,1013.4,0.000,1.6,22,3.5,1
02.09.2019,10:50,24.4,18.8,20.7,20.7,0.0,50,52,1013.4,0.000,2.4,135,2.1,1
02.09.2019,11:00,24.4,19.4,24.1,24.1,0.0,50,52,1013.4,0.000,1.8,337,3.1,1
02.09.2019,11:10,24.2,19.5,24.7,24.7,0.0,50,49,1013.5,0.000,3.7,247,4.2,1
02.09.2019,11:20,24.3,19.6,25.4,25.4,0.0,50,48,1013.5,0.000,3.2,337,11.9,1
02.09.2019,11:30,24.3,19.6,25.6,25.6,0.0,49,48,1013.6,0.000,3.4,360,2.3,1
02.09.2019,11:40,24.3,19.8,25.8,25.8,0.0,49,45,1013.6,0.000,3.4,22,6.8,1
02.09.2019,11:50,24.2,20.1,25.6,25.6,0.0,49,45,1013.5,0.000,2.6,22,5.0,1
02.09.2019,12:00,24.2,20.4,25.5,25.5,0.0,49,45,1013.5,0.000,2.6,90,2.9,1
02.09.2019,12:10,24.2,20.9,26.1,26.1,0.0,48,45,1013.6,0.000,2.4,112,3.2,1
02.09.2019,12:20,24.2,20.8,25.1,25.1,0.0,48,46,1013.6,0.000,3.2,360,2.3,1
02.09.2019,12:30,24.2,21.3,24.1,24.1,0.0,48,45,1013.3,0.000,2.6,315,0.0,1
02.09.2019,12:40,24.2,21.8,24.5,24.5,0.0,48,44,1013.3,0.000,3.4,22,0.0,1
02.09.2019,12:50,24.2,21.9,24.6,24.6,0.0,48,44,1013.4,0.000,1.9,247,3.9,1
02.09.2019,13:00,24.2,21.9,23.3,23.3,0.0,48,43,1013.4,0.000,3.4,315,2.3,1
02.09.2019,13:10,24.2,21.9,24.0,24.0,0.0,48,43,1013.4,0.000,2.7,270,1.8,1
02.09.2019,13:20,24.2,22.0,22.7,22.7,0.0,48,43,1013.4,0.000,3.2,112,1.9,1
02.09.2019,13:30,24.2,22.3,23.8,23.8,0.0,48,43,1013.3,0.000,2.1,292,0.0,1
02.09.2019,13:40,24.2,22.3,23.4,23.4,0.0,47,42,1013.3,0.000,1.9,292,0.0,1
02.09.2019,13:50,24.2,22.1,23.1,23.1,0.0,47,41,1013.6,0.000,2.1,270,3.2,1
02.09.2019,14:00,24.2,21.8,22.4,22.4,0.0,47,42,1013.6,0.000,2.9,112,1.6,1
02.09.2019,14:10,24.2,22.4,23.1,23.1,0.0,47,43,1013.6,0.000,0.8,112,0.0,1
02.09.2019,14:20,24.2,22.2,22.9,22.9,0.0,47,41,1013.6,0.000,1.3,315,5.5,1
02.09.2019,14:30,24.2,21.9,21.9,21.9,0.0,47,40,1013.6,0.000,3.2,315,0.0,1
02.09.2019,14:40,24.2,21.9,21.9,21.9,0.0,47,41,1013.6,0.000,2.3,45,2.4,1
02.09.2019,14:50,24.2,21.7,22.0,22.0,0.0,47,42,1013.5,0.000,3.1,315,2.4,1
02.09.2019,15:00,24.1,21.8,22.2,22.2,0.0,47,42,1013.5,0.000,2.7,292,5.8,1
02.09.2019,15:10,24.1,21.9,22.5,22.5,0.0,47,43,1013.6,0.000,2.7,135,5.5,1
02.09.2019,15:20,24.2,22.2,23.0,23.0,0.0,47,42,1013.6,0.000,2.3,22,0.0,1
02.09.2019,15:30,24.2,21.9,22.9,22.9,0.0,47,42,1013.4,0.000,0.8,112,0.0,1
02.09.2019,15:40,24.2,21.9,22.0,22.0,0.0,47,42,1013.4,0.000,0.2,157,0.0,1
02.09.2019,15:50,24.2,22.1,21.9,21.5,0.0,47,43,1013.2,0.000,1.8,292,2.6,1
02.09.2019,16:00,24.2,22.3,22.2,22.1,0.0,47,43,1013.2,0.000,2.1,315,3.7,1
02.09.2019,16:10,24.2,22.3,22.6,22.6,0.0,47,41,1013.4,0.000,1.8,45,3.5,1
02.09.2019,16:20,24.2,22.0,22.6,22.6,0.0,47,41,1013.4,0.000,1.1,270,1.6,1
02.09.2019,16:30,24.2,22.3,23.3,23.3,0.0,47,40,1013.4,0.000,1.8,270,2.3,1
02.09.2019,16:40,24.2,22.3,26.2,26.2,0.0,46,41,1013.4,0.000,1.0,315,4.5,1
02.09.2019,16:50,24.2,21.5,24.7,24.7,0.0,46,42,1013.4,0.000,3.2,270,3.2,1
02.09.2019,17:00,24.2,21.3,22.5,22.5,0.0,47,43,1013.4,0.000,2.7,270,1.9,1
02.09.2019,17:10,24.2,21.4,25.3,25.3,0.0,46,42,1012.9,0.000,0.8,67,1.6,1
02.09.2019,17:20,24.2,21.3,25.6,25.6,0.0,46,42,1012.9,0.000,1.9,315,2.3,1
02.09.2019,17:30,24.2,21.1,23.1,23.1,0.0,46,42,1013.4,0.000,2.3,315,0.0,1
02.09.2019,17:40,24.2,20.8,21.3,21.3,0.0,46,43,1013.4,0.000,1.6,180,2.9,1
02.09.2019,17:50,24.2,20.9,21.3,21.3,0.0,46,44,1012.9,0.000,1.1,247,2.3,1
02.09.2019,18:00,24.2,20.7,22.6,22.6,0.0,46,44,1012.9,0.000,1.3,292,2.9,1
02.09.2019,18:10,24.2,20.3,20.7,20.7,0.0,46,45,1012.9,0.000,0.5,315,0.0,1
02.09.2019,18:20,24.2,20.3,21.0,21.0,0.0,46,45,1012.9,0.000,0.2,315,1.6,1
02.09.2019,18:30,24.2,20.1,22.9,22.9,0.0,46,44,1013.2,0.000,1.3,292,3.9,1
02.09.2019,18:40,24.3,20.0,22.6,22.6,0.0,46,44,1013.2,0.000,1.4,247,2.7,1
02.09.2019,18:50,24.3,19.9,21.3,21.3,0.0,46,44,1013.2,0.000,1.0,22,2.1,1
02.09.2019,19:00,24.3,19.9,21.2,21.2,0.0,46,43,1013.2,0.000,1.1,247,0.0,1
02.09.2019,19:10,24.3,19.8,20.5,20.5,0.0,46,43,1013.1,0.000,1.0,247,2.3,1
02.09.2019,19:20,24.3,19.4,19.3,19.2,0.0,46,44,1013.1,0.000,1.1,315,1.9,1
02.09.2019,19:30,24.3,18.9,18.5,17.8,0.0,46,46,1013.5,0.000,0.2,180,0.0,1
02.09.2019,19:40,24.3,18.6,17.9,16.4,0.0,46,53,1013.5,0.000,0.2,135,0.0,1
02.09.2019,19:50,24.3,17.9,17.0,15.1,0.0,46,58,1013.7,0.000,0.0,112,0.0,1
02.09.2019,20:00,24.3,17.3,16.3,14.4,0.0,46,59,1013.7,0.000,0.0,135,1.8,1
02.09.2019,20:10,24.3,16.9,15.9,13.8,0.0,46,61,1014.6,0.000,0.0,112,0.0,1
02.09.2019,20:20,24.3,16.5,15.4,13.2,0.0,46,62,1014.6,0.000,0.0,135,0.0,1
02.09.2019,20:30,24.2,16.0,14.9,12.7,0.0,47,62,1014.0,0.000,0.0,157,0.0,1
02.09.2019,20:40,24.2,15.6,14.4,12.0,0.0,47,64,1014.0,0.000,0.0,135,0.0,1
02.09.2019,20:50,24.2,15.1,13.9,11.6,0.0,47,65,1014.4,0.000,0.0,157,0.0,1
02.09.2019,21:00,24.2,14.9,13.7,11.3,0.0,47,66,1014.4,0.000,0.0,135,0.0,1
02.09.2019,21:10,24.2,14.5,13.3,11.0,0.0,47,66,1014.7,0.000,0.0,112,0.0,1
02.09.2019,21:20,24.1,14.1,12.9,10.5,0.0,47,67,1014.7,0.000,0.0,135,0.0,1
02.09.2019,21:30,24.1,13.7,12.5,10.1,0.0,47,68,1014.9,0.000,0.0,135,0.0,1
02.09.2019,21:40,24.1,13.5,12.2,9.7,0.0,47,68,1014.9,0.000,0.0,157,0.0,1
02.09.2019,21:50,24.1,13.2,12.0,9.5,0.0,47,69,1015.1,0.000,0.0,112,0.0,1
02.09.2019,22:00,24.0,12.9,11.7,9.2,0.0,47,70,1015.1,0.000,0.0,157,0.0,1
02.09.2019,22:10,24.0,12.6,11.4,8.9,0.0,47,70,1015.3,0.000,0.0,135,0.0,1
02.09.2019,22:20,24.0,12.3,11.1,8.8,0.0,47,71,1015.3,0.000,0.0,135,0.0,1
02.09.2019,22:30,24.0,12.2,11.0,8.7,0.0,47,72,1015.3,0.000,0.0,112,0.0,1
02.09.2019,22:40,24.0,11.9,10.8,8.7,0.0,48,72,1015.3,0.000,0.0,135,0.0,1
02.09.2019,22:50,24.1,11.7,10.6,8.4,0.0,48,72,1015.6,0.000,0.0,135,0.0,1
02.09.2019,23:00,24.1,11.5,10.4,8.2,0.0,48,73,1015.6,0.000,0.0,157,0.0,1
02.09.2019,23:10,24.2,11.4,10.3,8.0,0.0,49,73,1015.7,0.000,0.0,135,0.0,1
02.09.2019,23:20,24.2,11.1,10.0,7.8,0.0,49,74,1015.7,0.000,0.0,135,0.0,1
02.09.2019,23:30,24.2,11.0,9.9,7.6,0.0,49,74,1015.6,0.000,0.0,135,0.0,1
02.09.2019,23:40,24.3,10.8,9.7,7.4,0.0,49,75,1015.6,0.000,0.0,157,0.0,1
02.09.2019,23:50,24.3,10.6,9.5,7.3,0.0,49,75,1015.8,0.000,0.0,112,0.0,1
03.09.2019,00:00,24.2,10.5,9.4,7.1,0.0,49,75,1015.8,0.000,0.0,157,0.0,1
03.09.2019,00:01,24.2,10.5,9.4,7.1,0.0,49,75,1015.8,0.000,0.0,157,0.0,1
03.09.2019,00:10,24.2,10.3,9.2,7.1,0.0,49,75,1015.8,0.000,0.0,157,0.0,1
03.09.2019,00:20,24.2,10.1,9.0,6.8,0.0,49,76,1015.8,0.000,0.0,135,0.0,1
03.09.2019,00:30,24.4,10.0,8.9,6.8,0.0,49,76,1016.1,0.000,0.0,135,0.0,1
03.09.2019,00:40,24.4,9.9,8.8,6.7,0.0,49,76,1016.1,0.000,0.0,135,0.0,1
03.09.2019,00:50,24.4,9.7,8.6,6.5,0.0,49,77,1015.9,0.000,0.0,135,0.0,1
03.09.2019,01:00,24.4,9.5,8.5,6.5,0.0,49,77,1015.9,0.000,0.0,157,0.0,1
03.09.2019,01:10,24.4,9.4,8.4,6.3,0.0,49,77,1015.9,0.000,0.0,157,0.0,1
03.09.2019,01:20,24.2,9.3,8.3,6.3,0.0,49,78,1015.9,0.000,0.0,157,0.0,1
03.09.2019,01:30,24.4,9.1,8.1,6.1,0.0,49,78,1015.8,0.000,0.0,135,0.0,1
03.09.2019,01:40,24.4,9.0,8.0,6.0,0.0,49,78,1015.8,0.000,0.0,112,0.0,1
03.09.2019,01:50,24.2,8.9,7.9,6.0,0.0,49,78,1015.8,0.000,0.0,135,0.0,1
03.09.2019,02:00,24.2,8.8,7.8,5.9,0.0,49,78,1015.8,0.000,0.0,135,0.0,1
03.09.2019,02:10,24.3,8.7,7.7,5.7,0.0,49,78,1015.8,0.000,0.0,135,0.0,1
03.09.2019,02:20,24.3,8.6,7.6,5.6,0.0,49,79,1015.8,0.000,0.0,112,0.0,1
03.09.2019,02:30,24.3,8.5,7.5,5.5,0.0,49,79,1015.8,0.000,0.0,135,0.0,1
03.09.2019,02:40,24.3,8.4,7.4,5.4,0.0,49,79,1015.8,0.000,0.0,135,0.0,1
03.09.2019,02:50,24.2,8.3,7.3,5.3,0.0,49,79,1015.5,0.000,0.0,135,0.0,1
03.09.2019,03:00,24.2,8.1,7.1,5.2,0.0,49,79,1015.5,0.000,0.0,90,0.0,1
03.09.2019,03:10,24.2,8.0,7.1,5.2,0.0,49,79,1015.6,0.000,0.0,135,0.0,1
03.09.2019,03:20,24.2,7.9,7.0,5.1,0.0,49,79,1015.6,0.000,0.0,112,0.0,1
03.09.2019,03:30,24.2,7.9,6.9,5.0,0.0,49,80,1015.5,0.000,0.0,112,0.0,1
03.09.2019,03:40,24.2,7.7,6.8,4.9,0.0,49,80,1015.5,0.000,0.0,135,0.0,1
03.09.2019,03:50,24.2,7.6,6.7,4.9,0.0,49,80,1015.4,0.000,0.0,315,0.0,1
03.09.2019,04:00,24.2,7.5,6.6,4.9,0.0,49,80,1015.4,0.000,0.0,90,0.0,1
03.09.2019,04:10,24.1,7.4,6.5,4.6,0.0,49,80,1016.0,0.000,0.0,337,0.0,1